Find Local Weather

World > North America > United States > Florida

Jacksonville, Florida Regional Weather

Lat: 30.33N, Lon: 81.66W
Wx Zone: FLZ025
Feedback
Expires:201810160000;;243794
ASUS42 KTBW 152316
RWRFL 
FLORIDA REGIONAL WEATHER ROUNDUP
NATIONAL WEATHER SERVICE TAMPA BAY RUSKIN FL
700 PM EDT MON OCT 15 2018

NOTE: "FAIR" INDICATES FEW OR NO CLOUDS BELOW 12,000 FEET WITH NO
SIGNIFICANT WEATHER AND/OR OBSTRUCTIONS TO VISIBILITY.


FLZ011-016>038-118-127-128-134-139-239-160000-
NORTH FLORIDA
  
CITY           SKY/WX    TMP DP  RH WIND       PRES   REMARKS
TALLAHASSEE    FAIR      85  72  65 S5        30.06R                  
PERRY          FAIR      83  73  72 W3        30.08R                  
LIVE OAK       CLOUDY    82  75  78 CALM      30.07                   
CROSS CITY     FAIR      84  75  74 NW5       30.06S                  
LAKE CITY      FAIR      81  72  74 CALM      30.08R                  
GAINESVILLE    FAIR      83  71  67 CALM      30.09R                  
PALATKA        FAIR      82  75  78 E8        30.09                   
MAYPORT NAS    FAIR      82  77  84 E8        30.09S                  
JACKSONVILLE   FAIR      81  74  79 E6        30.09R                  
JAX NAS        PTCLDY    84  75  74 E7        30.09R                  
JAX CECIL      CLEAR     82  73  74 E6        30.08R                  
ST AUGUSTINE   FAIR      81  75  82 E8        30.10S                  
PALM COAST     PTCLDY    81  75  83 E5        30.09R                  

STATION/POSITION SKY/WX   TEMP    WIND        PRES    WAVE   SWELL
                          AIR SEA DIR/SP/G            HT/PER HT/PER
                          (F)     (DEG/KT/KT) (MB)    (FT/S) (FT/S)
SHELL POINT      NOT AVBL
KEATON BEACH               81     290/  3/  4 1018.4F
CEDAR KEY                  82     320/  3/  6 1018.2R
FERNANDINA                    81  100/  3/  7 1020.0R
30.7N   81.3W                 82                N/A     3/ 6
MAYPORT                    81 82   90/  7/  9 1019.5S
31.4N   80.9W              80 82  110/ 10/ 12 1019.3R   3/ 6   3/ 6
ST AUGUSTINE               82 84  100/  8/  9 1019.3R

$$

SKY/WX - Weather  TMP - Temperature  DP - Dew Point  RH - Relative Humidity
WIND - Wind Direction/Speed PRES - Barometric Pressure